SCP
0 0 0 0 0 0 0 0 0 0 0 1 1 0 0 0 0 0 0 0 0 0 0 0 -0 -0 -0 -0 0 0 0 0 0 0 0 0 0 0 0 0 0 0 0
0 0 0 0 0 0 0 0 0 0 0 1 1 1 0 0 0 0 0 0 0 0 0 0 -0 -0 -0 0 0 0 0 0 0 0 0 0 0 0 0 0 0 0 0
0 0 0 0 0 0 0 0 0 0 1 1 1 1 0 0 0 0 0 0 0 0 0 0 0 0 -0 0 0 0 0 0 0 0 0 0 0 0 0 0 0 0 0
-0 0 0 0 0 0 0 0 0 0 1 1 1 1 0 0 0 0 0 0 0 0 -0 0 0 -0 -0 -0 -0 0 0 0 0 0 0 0 0 0 0 0 0 0 0
0 0 0 0 0 0 0 0 0 1 1 1 1 0 0 0 0 0 0 0 0 0 -0 0 -0 -0 -0 -0 -0 -0 -0 0 0 0 0 0 0 0 0 0 0 0 0
0 0 0 0 0 0 0 0 0 0 1 0 0 0 0 0 0 0 0 0 0 0 0 0 -0 0 -0 -0 0 0 0 0 0 0 0 0 0 0 0 0 0 0 0
0 0 0 0 0 0 0 0 1 0 0 0 0 0 0 0 0 0 0 0 0 0 -0 0 0 0 0 -0 -0 -0 -0 0 0 0 0 0 0 0 0 0 0 0 0
0 0 0 0 0 0 0 0 0 0 0 0 0 0 0 0 0 0 0 0 0 0 0 0 0 0 0 0 0 0 0 -0 0 0 0 0 0 0 0 0 0 0 0
0 0 0 0 0 0 0 0 0 0 0 0 0 0 0 0 0 0 0 0 0 0 0 0 0 0 0 0 0 0 0 0 0 0 0 0 0 0 0 0 0 0 0
0 0 0 0 0 0 0 0 0 0 0 0 0 0 0 0 0 0 0 0 0 0 0 0 0 0 0 0 0 0 0 0 0 0 0 0 0 0 0 0 0 0 0
0 0 0 0 0 0 0 0 0 0 0 0 0 0 0 0 0 0 0 0 0 0 0 0 0 0 0 0 0 -0 -0 0 -0 -0 0 0 0 0 0 0 0 0 0
0 0 0 0 0 0 0 0 0 0 0 0 0 0 0 0 0 0 0 0 0 0 0 0 0 0 0 0 0 -0 -0 -0 -0 -0 -0 0 0 0 0 0 0 0 0
0 0 0 0 -0 0 0 0 0 0 0 0 0 0 0 0 0 0 0 0 0 0 0 0 0 0 0 0 0 0 0 0 0 0 0 0 0 0 0 0 0 0 0
0 0 0 0 0 0 0 0 0 0 0 0 0 0 0 0 0 0 0 0 0 0 0 0 0 0 0 0 0 0 0 0 0 0 0 0 0 0 0 0 0 0 0
0 0 0 0 0 0 0 0 0 0 0 0 0 0 0 0 0 0 0 0 0 0 0 0 0 0 0 0 0 0 0 0 0 0 0 0 0 0 0 0 0 0 0
0 0 0 0 0 0 0 0 0 0 0 0 0 0 0 0 0 0 0 0 0 0 0 0 0 0 0 0 0 0 0 0 0 0 0 0 0 0 0 0 0 0 0
0 0 0 0 0 0 0 0 0 0 0 0 0 0 0 0 0 0 0 0 0 0 0 0 0 0 0 0 0 0 0 0 0 0 0 0 0 0 0 0 0 0 0
0 0 0 0 0 0 0 0 0 0 0 0 0 0 0 0 0 0 0 0 -0 0 0 -0 0 0 0 0 0 0 0 0 0 0 0 0 0 0 0 0 0 0 0
0 0 0 0 0 0 0 0 0 0 0 0 0 0 0 0 0 0 0 -0 -0 -0 0 -0 0 0 0 0 0 0 0 0 0 0 0 0 0 0 0 0 0 0 0
0 0 0 0 0 0 0 0 0 0 0 0 0 0 0 0 0 -0 -0 -0 0 -0 0 0 0 0 0 0 0 0 0 0 0 0 0 0 0 0 0 0 0 0 0
0 0 0 0 0 0 0 0 0 0 0 0 0 0 0 0 0 0 -0 -0 -0 0 0 0 0 0 0 0 0 0 0 0 0 0 0 0 0 0 0 0 0 0 0
0 0 0 0 0 0 0 0 0 0 0 0 0 0 0 0 0 0 0 0 0 0 0 0 0 0 0 0 0 0 0 0 0 0 0 0 0 0 0 0 0 0 0
0 0 0 0 0 0 0 0 0 0 0 0 0 0 -0 -0 0 0 0 0 0 0 0 0 0 0 0 0 0 0 0 0 0 0 0 0 0 0 0 0 0 0 0
-0 -0 -0 -0 -0 -0 -0 -0 0 0 -0 -0 0 0 -0 -0 -0 -0 0 0 0 0 0 0 0 0 0 0 0 0 0 0 0 0 0 0 0 0 0 0 0 0 0
-0 -0 0 0 0 0 0 -0 0 0 0 0 -0 -0 -0 -0 -0 0 0 0 0 0 0 0 0 0 0 0 0 0 0 0 0 0 0 0 0 0 0 0 0 0 0
-0 -0 -0 -0 0 0 0 -0 0 -0 -0 -0 -0 -0 -0 0 0 0 0 0 0 0 0 0 0 0 0 0 0 0 0 0 0 0 0 0 0 0 0 0 0 0 0
Wind_Speed_500mb
23 26 27 27 25 29 36 41 42 44 45 50 58 62 62 61 62 62 56 48 45 44 45 50 52 51 47 44 44 41 39 35 33 30 29 25 21 16 15 12 12 14 16
18 19 20 20 22 26 30 35 39 44 48 55 65 66 63 66 67 62 62 54 46 48 49 51 52 51 48 44 41 38 36 32 29 26 24 21 17 14 13 12 15 17 20
8 12 15 20 21 25 27 33 40 48 52 61 70 70 66 67 62 56 55 57 47 48 48 52 50 51 47 43 39 35 32 28 25 23 20 16 14 12 12 13 15 17 18
11 13 18 19 22 27 31 39 47 55 61 68 71 70 64 64 57 52 59 53 50 46 43 46 46 47 45 39 36 32 27 23 20 17 15 13 10 10 14 17 19 18 15
9 12 17 18 17 25 35 45 55 58 71 72 69 65 67 64 52 57 57 57 47 47 48 47 43 43 41 37 33 29 25 19 14 13 11 7 9 15 17 17 15 12 12
9 15 19 25 19 29 51 58 65 67 75 76 70 71 75 70 66 63 56 44 44 44 47 48 44 40 36 33 31 24 19 16 15 13 4 10 16 17 14 9 7 11 14
5 24 22 30 38 47 55 72 64 81 75 77 81 77 75 72 67 57 51 44 43 47 43 43 41 36 31 26 21 18 17 16 13 2 9 13 9 8 8 7 9 12 17
43 46 38 32 37 50 60 66 73 88 87 90 96 84 66 59 57 53 54 46 46 45 42 39 34 26 25 15 13 18 17 11 4 6 6 7 8 8 8 8 9 14 18
25 28 26 38 33 45 57 67 69 70 80 79 85 48 48 40 68 46 52 45 37 34 31 30 26 27 23 20 16 15 11 6 8 3 3 6 6 7 7 7 14 18 22
37 33 31 32 28 37 44 53 58 64 68 76 63 55 43 86 48 45 39 34 29 25 18 19 18 18 17 18 16 14 8 2 9 5 5 7 6 9 12 13 17 21 22
26 25 30 24 27 38 32 37 53 68 54 47 59 52 55 66 59 60 52 43 32 24 17 9 8 10 14 14 13 12 7 6 4 6 10 10 9 8 12 15 17 19 22
18 26 25 33 33 30 31 39 45 58 32 38 45 49 74 80 70 74 59 44 32 24 19 15 14 16 17 20 18 12 12 11 14 13 9 3 6 9 12 14 18 20 24
31 45 31 30 48 32 31 42 43 44 34 31 26 38 69 60 64 59 57 51 42 30 24 19 22 24 22 21 19 17 23 21 14 8 2 4 7 10 15 20 24 29 32
34 41 37 36 35 35 34 39 37 31 37 28 23 40 52 44 53 47 45 50 44 35 29 24 24 23 25 25 25 25 21 15 7 1 6 11 14 17 20 23 27 27 27
47 45 39 37 40 31 32 30 28 23 29 31 29 29 31 33 34 31 35 37 45 41 31 30 31 31 31 27 24 21 16 10 4 11 14 16 17 19 23 23 25 26 25
32 39 38 35 35 38 40 37 48 50 49 47 41 38 35 37 32 29 30 30 27 30 30 38 37 35 29 23 17 15 11 8 11 16 20 20 19 20 21 26 28 29 27
28 33 35 36 36 37 34 35 40 45 47 44 44 50 50 47 42 37 32 27 23 29 39 38 37 33 26 20 18 14 11 13 17 21 18 17 19 22 30 32 31 30 31
35 38 38 38 42 41 40 39 39 37 35 38 43 43 41 39 37 34 30 27 26 20 27 33 36 31 24 19 13 14 16 20 20 18 18 19 23 28 32 31 25 29 26
34 32 30 31 33 34 38 38 35 33 31 30 29 26 29 29 28 27 24 21 25 23 22 16 29 29 24 21 19 21 22 23 21 21 20 22 25 27 27 25 25 22 21
30 29 29 27 27 28 24 24 22 24 26 27 26 24 24 20 17 20 18 17 25 30 28 28 27 30 29 27 27 27 25 25 24 23 21 22 23 25 24 22 18 17 23
30 27 27 25 21 19 19 20 21 21 21 21 22 21 21 22 22 20 19 20 25 30 29 32 37 38 35 33 30 28 31 30 27 26 26 25 23 21 19 17 17 19 25
31 30 26 22 18 16 15 17 18 19 22 23 23 24 26 26 23 22 22 21 20 18 18 26 32 33 31 32 33 34 33 34 34 32 31 27 22 19 17 15 15 23 28
29 28 26 23 20 17 16 16 17 18 19 19 18 18 17 17 16 13 11 12 12 13 14 20 25 28 32 34 37 39 37 35 35 30 25 27 24 18 15 14 17 25 29
28 27 26 24 21 20 20 20 21 21 21 22 22 20 17 14 11 9 7 9 13 17 22 26 30 33 35 37 39 36 32 31 30 29 27 24 23 24 20 17 19 27 32
30 27 25 24 24 23 22 23 23 23 22 20 19 17 15 12 10 9 11 15 18 22 25 31 35 38 40 40 37 34 31 30 31 29 28 28 28 29 29 25 23 30 36
28 27 26 26 24 22 21 21 19 18 16 16 17 17 15 16 18 20 23 25 27 28 31 33 36 38 39 39 38 36 35 35 34 33 32 29 30 29 31 33 31 35 39
Wind_Direction_500mb
165 182 189 190 185 191 189 190 196 194 192 188 184 182 173 177 182 167 162 157 160 172 162 157 153 149 151 148 144 144 136 132 129 124 120 118 115 107 87 67 45 18 6
168 172 183 183 181 186 192 192 197 191 186 183 178 171 168 167 173 171 159 161 170 164 162 156 155 151 150 149 147 146 143 140 136 128 126 127 120 96 71 43 23 8 352
177 185 192 186 189 189 188 195 190 181 180 174 172 167 167 170 176 180 185 174 175 164 161 158 155 152 154 152 150 146 142 140 138 135 134 125 107 84 44 18 1 359 359
220 197 194 186 189 189 195 184 174 174 173 171 168 169 176 182 186 185 171 155 160 160 162 158 158 156 156 151 149 145 144 140 141 137 138 127 100 36 358 346 346 349 357
212 193 189 184 171 196 182 176 170 171 169 167 168 168 164 158 155 159 157 155 159 161 169 161 159 157 155 156 151 153 149 145 139 152 142 112 348 342 347 354 351 358 19
206 174 174 172 175 182 160 158 166 167 166 168 167 160 157 158 155 163 164 162 165 170 166 158 158 159 159 157 158 156 147 156 154 144 163 324 338 337 332 342 26 46 44
2 165 163 154 153 168 162 159 167 166 160 165 159 149 152 151 152 162 167 169 165 168 158 158 157 158 155 159 157 158 164 154 149 177 323 321 332 353 358 28 52 44 33
93 117 133 122 158 160 160 165 159 153 143 149 142 140 134 148 152 164 154 156 157 159 159 156 155 155 155 154 185 180 175 179 206 275 311 1 348 5 48 57 45 31 19
103 114 108 135 153 156 148 153 163 157 150 152 152 150 147 149 149 159 160 162 159 158 149 153 161 171 173 194 181 194 192 217 264 202 39 26 29 72 81 42 24 16 12
103 104 124 108 113 147 150 155 156 160 157 152 162 158 163 161 155 138 164 169 164 157 152 155 169 176 192 191 199 206 220 174 113 119 68 65 65 47 32 19 9 2 356
135 120 140 128 111 113 127 153 163 146 139 147 162 160 157 162 164 150 137 152 155 154 173 176 180 178 174 170 175 175 182 176 147 102 79 66 50 28 13 357 346 338 334
182 177 142 140 128 129 130 134 142 148 109 130 151 172 169 170 168 167 158 153 158 156 165 169 167 165 170 176 180 174 151 137 117 104 93 72 17 356 343 336 332 331 327
116 123 119 146 142 126 136 156 152 159 152 141 143 170 170 172 166 164 160 159 167 160 162 170 166 156 147 141 142 139 126 125 125 119 131 3 342 333 330 326 326 323 319
110 123 123 124 126 123 128 146 146 155 138 167 129 148 175 176 177 171 170 166 159 158 158 158 147 141 133 133 134 137 140 141 136 169 308 313 312 312 314 318 320 319 319
105 108 115 122 126 128 135 138 151 128 123 144 144 146 155 161 174 181 182 178 166 157 152 152 145 145 137 144 149 149 149 168 247 304 304 298 296 300 304 310 315 323 327
109 113 114 119 124 128 125 116 123 122 119 117 125 135 140 146 156 166 171 180 188 181 155 156 156 153 157 164 167 180 200 244 291 303 289 284 283 296 310 319 329 326 322
127 135 130 126 133 136 138 135 132 131 126 123 127 129 130 133 142 156 169 175 169 173 162 154 160 166 173 190 211 231 244 284 288 280 282 283 290 303 314 320 319 314 314
134 143 139 135 130 138 138 138 138 142 141 137 137 136 134 134 139 143 147 143 148 160 175 170 174 183 193 202 214 236 258 274 275 279 280 279 293 307 311 310 311 311 315
146 140 144 151 145 140 139 138 140 144 146 146 149 156 148 152 149 148 149 158 177 173 190 202 194 197 202 210 222 237 257 269 267 271 273 285 296 302 305 314 314 324 328
151 149 151 147 152 163 167 163 163 163 159 156 156 154 150 164 172 169 181 187 193 197 203 214 216 213 217 219 228 246 257 264 259 262 265 276 289 300 305 310 313 314 321
168 163 158 155 151 158 166 169 173 182 188 189 188 190 192 193 202 213 221 220 209 212 220 225 225 221 222 227 240 259 266 261 255 256 263 272 283 290 298 306 312 319 323
180 185 182 186 192 200 192 188 191 194 193 197 206 210 212 215 219 223 227 228 227 235 234 225 233 242 249 246 253 263 262 256 251 255 253 256 264 272 285 296 312 318 319
193 194 199 205 210 206 193 182 175 171 172 170 172 177 180 188 196 202 211 219 229 241 253 265 274 280 280 283 282 279 272 263 259 250 245 246 260 276 298 302 311 318 322
190 190 186 180 174 165 156 153 154 154 154 154 157 160 159 165 177 189 220 254 262 260 261 264 267 265 268 274 273 268 262 256 249 248 245 251 259 275 289 287 307 324 327
168 165 160 155 152 152 152 148 149 151 153 158 165 164 159 165 179 210 247 261 266 272 275 274 273 272 270 267 265 263 263 262 259 254 252 263 273 279 286 288 308 329 329
162 160 157 156 159 163 169 174 175 178 183 188 195 204 213 227 240 246 252 256 261 264 264 267 269 269 269 267 266 265 262 260 257 256 260 266 274 281 288 286 298 319 326
Wind_Speed_850mb
23 26 27 27 25 29 36 41 42 44 45 50 58 62 62 61 62 62 56 48 45 44 45 50 52 51 47 44 44 41 39 35 33 30 29 25 21 16 15 12 12 14 16
18 19 20 20 22 26 30 35 39 44 48 55 65 66 63 66 67 62 62 54 46 48 49 51 52 51 48 44 41 38 36 32 29 26 24 21 17 14 13 12 15 17 20
8 12 15 20 21 25 27 33 40 48 52 61 70 70 66 67 62 56 55 57 47 48 48 52 50 51 47 43 39 35 32 28 25 23 20 16 14 12 12 13 15 17 18
11 13 18 19 22 27 31 39 47 55 61 68 71 70 64 64 57 52 59 53 50 46 43 46 46 47 45 39 36 32 27 23 20 17 15 13 10 10 14 17 19 18 15
9 12 17 18 17 25 35 45 55 58 71 72 69 65 67 64 52 57 57 57 47 47 48 47 43 43 41 37 33 29 25 19 14 13 11 7 9 15 17 17 15 12 12
9 15 19 25 19 29 51 58 65 67 75 76 70 71 75 70 66 63 56 44 44 44 47 48 44 40 36 33 31 24 19 16 15 13 4 10 16 17 14 9 7 11 14
5 24 22 30 38 47 55 72 64 81 75 77 81 77 75 72 67 57 51 44 43 47 43 43 41 36 31 26 21 18 17 16 13 2 9 13 9 8 8 7 9 12 17
43 46 38 32 37 50 60 66 73 88 87 90 96 84 66 59 57 53 54 46 46 45 42 39 34 26 25 15 13 18 17 11 4 6 6 7 8 8 8 8 9 14 18
25 28 26 38 33 45 57 67 69 70 80 79 85 48 48 40 68 46 52 45 37 34 31 30 26 27 23 20 16 15 11 6 8 3 3 6 6 7 7 7 14 18 22
37 33 31 32 28 37 44 53 58 64 68 76 63 55 43 86 48 45 39 34 29 25 18 19 18 18 17 18 16 14 8 2 9 5 5 7 6 9 12 13 17 21 22
26 25 30 24 27 38 32 37 53 68 54 47 59 52 55 66 59 60 52 43 32 24 17 9 8 10 14 14 13 12 7 6 4 6 10 10 9 8 12 15 17 19 22
18 26 25 33 33 30 31 39 45 58 32 38 45 49 74 80 70 74 59 44 32 24 19 15 14 16 17 20 18 12 12 11 14 13 9 3 6 9 12 14 18 20 24
31 45 31 30 48 32 31 42 43 44 34 31 26 38 69 60 64 59 57 51 42 30 24 19 22 24 22 21 19 17 23 21 14 8 2 4 7 10 15 20 24 29 32
34 41 37 36 35 35 34 39 37 31 37 28 23 40 52 44 53 47 45 50 44 35 29 24 24 23 25 25 25 25 21 15 7 1 6 11 14 17 20 23 27 27 27
47 45 39 37 40 31 32 30 28 23 29 31 29 29 31 33 34 31 35 37 45 41 31 30 31 31 31 27 24 21 16 10 4 11 14 16 17 19 23 23 25 26 25
32 39 38 35 35 38 40 37 48 50 49 47 41 38 35 37 32 29 30 30 27 30 30 38 37 35 29 23 17 15 11 8 11 16 20 20 19 20 21 26 28 29 27
28 33 35 36 36 37 34 35 40 45 47 44 44 50 50 47 42 37 32 27 23 29 39 38 37 33 26 20 18 14 11 13 17 21 18 17 19 22 30 32 31 30 31
35 38 38 38 42 41 40 39 39 37 35 38 43 43 41 39 37 34 30 27 26 20 27 33 36 31 24 19 13 14 16 20 20 18 18 19 23 28 32 31 25 29 26
34 32 30 31 33 34 38 38 35 33 31 30 29 26 29 29 28 27 24 21 25 23 22 16 29 29 24 21 19 21 22 23 21 21 20 22 25 27 27 25 25 22 21
30 29 29 27 27 28 24 24 22 24 26 27 26 24 24 20 17 20 18 17 25 30 28 28 27 30 29 27 27 27 25 25 24 23 21 22 23 25 24 22 18 17 23
30 27 27 25 21 19 19 20 21 21 21 21 22 21 21 22 22 20 19 20 25 30 29 32 37 38 35 33 30 28 31 30 27 26 26 25 23 21 19 17 17 19 25
31 30 26 22 18 16 15 17 18 19 22 23 23 24 26 26 23 22 22 21 20 18 18 26 32 33 31 32 33 34 33 34 34 32 31 27 22 19 17 15 15 23 28
29 28 26 23 20 17 16 16 17 18 19 19 18 18 17 17 16 13 11 12 12 13 14 20 25 28 32 34 37 39 37 35 35 30 25 27 24 18 15 14 17 25 29
28 27 26 24 21 20 20 20 21 21 21 22 22 20 17 14 11 9 7 9 13 17 22 26 30 33 35 37 39 36 32 31 30 29 27 24 23 24 20 17 19 27 32
30 27 25 24 24 23 22 23 23 23 22 20 19 17 15 12 10 9 11 15 18 22 25 31 35 38 40 40 37 34 31 30 31 29 28 28 28 29 29 25 23 30 36
28 27 26 26 24 22 21 21 19 18 16 16 17 17 15 16 18 20 23 25 27 28 31 33 36 38 39 39 38 36 35 35 34 33 32 29 30 29 31 33 31 35 39
Wind_Direction_850mb
165 182 189 190 185 191 189 190 196 194 192 188 184 182 173 177 182 167 162 157 160 172 162 157 153 149 151 148 144 144 136 132 129 124 120 118 115 107 87 67 45 18 6
168 172 183 183 181 186 192 192 197 191 186 183 178 171 168 167 173 171 159 161 170 164 162 156 155 151 150 149 147 146 143 140 136 128 126 127 120 96 71 43 23 8 352
177 185 192 186 189 189 188 195 190 181 180 174 172 167 167 170 176 180 185 174 175 164 161 158 155 152 154 152 150 146 142 140 138 135 134 125 107 84 44 18 1 359 359
220 197 194 186 189 189 195 184 174 174 173 171 168 169 176 182 186 185 171 155 160 160 162 158 158 156 156 151 149 145 144 140 141 137 138 127 100 36 358 346 346 349 357
212 193 189 184 171 196 182 176 170 171 169 167 168 168 164 158 155 159 157 155 159 161 169 161 159 157 155 156 151 153 149 145 139 152 142 112 348 342 347 354 351 358 19
206 174 174 172 175 182 160 158 166 167 166 168 167 160 157 158 155 163 164 162 165 170 166 158 158 159 159 157 158 156 147 156 154 144 163 324 338 337 332 342 26 46 44
2 165 163 154 153 168 162 159 167 166 160 165 159 149 152 151 152 162 167 169 165 168 158 158 157 158 155 159 157 158 164 154 149 177 323 321 332 353 358 28 52 44 33
93 117 133 122 158 160 160 165 159 153 143 149 142 140 134 148 152 164 154 156 157 159 159 156 155 155 155 154 185 180 175 179 206 275 311 1 348 5 48 57 45 31 19
103 114 108 135 153 156 148 153 163 157 150 152 152 150 147 149 149 159 160 162 159 158 149 153 161 171 173 194 181 194 192 217 264 202 39 26 29 72 81 42 24 16 12
103 104 124 108 113 147 150 155 156 160 157 152 162 158 163 161 155 138 164 169 164 157 152 155 169 176 192 191 199 206 220 174 113 119 68 65 65 47 32 19 9 2 356
135 120 140 128 111 113 127 153 163 146 139 147 162 160 157 162 164 150 137 152 155 154 173 176 180 178 174 170 175 175 182 176 147 102 79 66 50 28 13 357 346 338 334
182 177 142 140 128 129 130 134 142 148 109 130 151 172 169 170 168 167 158 153 158 156 165 169 167 165 170 176 180 174 151 137 117 104 93 72 17 356 343 336 332 331 327
116 123 119 146 142 126 136 156 152 159 152 141 143 170 170 172 166 164 160 159 167 160 162 170 166 156 147 141 142 139 126 125 125 119 131 3 342 333 330 326 326 323 319
110 123 123 124 126 123 128 146 146 155 138 167 129 148 175 176 177 171 170 166 159 158 158 158 147 141 133 133 134 137 140 141 136 169 308 313 312 312 314 318 320 319 319
105 108 115 122 126 128 135 138 151 128 123 144 144 146 155 161 174 181 182 178 166 157 152 152 145 145 137 144 149 149 149 168 247 304 304 298 296 300 304 310 315 323 327
109 113 114 119 124 128 125 116 123 122 119 117 125 135 140 146 156 166 171 180 188 181 155 156 156 153 157 164 167 180 200 244 291 303 289 284 283 296 310 319 329 326 322
127 135 130 126 133 136 138 135 132 131 126 123 127 129 130 133 142 156 169 175 169 173 162 154 160 166 173 190 211 231 244 284 288 280 282 283 290 303 314 320 319 314 314
134 143 139 135 130 138 138 138 138 142 141 137 137 136 134 134 139 143 147 143 148 160 175 170 174 183 193 202 214 236 258 274 275 279 280 279 293 307 311 310 311 311 315
146 140 144 151 145 140 139 138 140 144 146 146 149 156 148 152 149 148 149 158 177 173 190 202 194 197 202 210 222 237 257 269 267 271 273 285 296 302 305 314 314 324 328
151 149 151 147 152 163 167 163 163 163 159 156 156 154 150 164 172 169 181 187 193 197 203 214 216 213 217 219 228 246 257 264 259 262 265 276 289 300 305 310 313 314 321
168 163 158 155 151 158 166 169 173 182 188 189 188 190 192 193 202 213 221 220 209 212 220 225 225 221 222 227 240 259 266 261 255 256 263 272 283 290 298 306 312 319 323
180 185 182 186 192 200 192 188 191 194 193 197 206 210 212 215 219 223 227 228 227 235 234 225 233 242 249 246 253 263 262 256 251 255 253 256 264 272 285 296 312 318 319
193 194 199 205 210 206 193 182 175 171 172 170 172 177 180 188 196 202 211 219 229 241 253 265 274 280 280 283 282 279 272 263 259 250 245 246 260 276 298 302 311 318 322
190 190 186 180 174 165 156 153 154 154 154 154 157 160 159 165 177 189 220 254 262 260 261 264 267 265 268 274 273 268 262 256 249 248 245 251 259 275 289 287 307 324 327
168 165 160 155 152 152 152 148 149 151 153 158 165 164 159 165 179 210 247 261 266 272 275 274 273 272 270 267 265 263 263 262 259 254 252 263 273 279 286 288 308 329 329
162 160 157 156 159 163 169 174 175 178 183 188 195 204 213 227 240 246 252 256 261 264 264 267 269 269 269 267 266 265 262 260 257 256 260 266 274 281 288 286 298 319 326